Regional Weather Roundup
Issued by NWS

Home | Current Version | Previous Version | Text Only | Print | Product List | Glossary Off
Versions: 1 2 3 4 5 6 7 8 9 10 11 12 13 14 15 16 17 18 19 20 21 22 23 24 25 26 27 28 29 30 31 32 33 34 35 36 37 38 39 40 41 42 43 44 45 46 47 48 49 50

831
ASUS43 KDTX 241801
RWRMI
MICHIGAN HOURLY REGIONAL WEATHER ROUNDUP
NATIONAL WEATHER SERVICE DETROIT/PONTIAC MI
200 PM EDT WED AUG 24 2016

NOTE: "FAIR" INDICATES FEW OR NO CLOUDS BELOW 12,000 FEET WITH NO
SIGNIFICANT WEATHER AND/OR OBSTRUCTION TO VISIBILITY.

MIZ047>049-052>055-059>063-066>070-074>076-081>083-241900-
SOUTHEAST LOWER MICHIGAN

CITY           SKY/WX    TMP DP  RH WIND       PRES   REMARKS
ADRIAN         CLOUDY    81  72  74 SW16G22   30.06F
6HR MIN TEMP:  62; 6HR MAX TEMP:  81; 6HR PCP: TRACE;

ALMA           CLOUDY    77  74  88 S12       29.99S
ANN ARBOR      CLOUDY    80  70  71 SE16      30.05F
BAD AXE        PTSUNNY   80  65  60 S20G29    30.00F
CARO           CLOUDY    80  69  68 S12G21    30.00F
DETROIT CITY   MOSUNNY   82  68  62 S16G22    30.06F
6HR MIN TEMP:  69; 6HR MAX TEMP:  82;

DETROIT        CLOUDY    82  69  64 S18       30.06F
6HR MIN TEMP:  66; 6HR MAX TEMP:  83;

FLINT          CLOUDY    79  71  76 S9        30.03S
6HR MIN TEMP:  67; 6HR MAX TEMP:  84; 6HR PCP:  0.10;

GROSSE ILE     MOSUNNY   81  70  69 S13       30.06F
6HR MIN TEMP:  73; 6HR MAX TEMP:  81;

HILLSDALE      CLOUDY    78  71  77 S12       30.05F
6HR MIN TEMP:  51; 6HR MAX TEMP:  84;

HOWELL         CLOUDY    78  71  79 S12       30.04F
6HR MIN TEMP:  65; 6HR MAX TEMP:  81;


CITY           SKY/WX    TMP DP  RH WIND       PRES   REMARKS
JACKSON        PTSUNNY   78  73  84 S10       30.03F
6HR MIN TEMP:  66; 6HR MAX TEMP:  79; 6HR PCP:  0.08;

LAMBERTVILLE   CLOUDY    83  69  63 SW12G21   30.07F
6HR MIN TEMP:  65; 6HR MAX TEMP:  84;

LANSING        CLOUDY    79  69  71 S14G22    30.00F
6HR MIN TEMP:  67; 6HR MAX TEMP:  79; 6HR PCP: TRACE;

LAPEER         NOT AVBL
MASON          PTSUNNY   78  70  75 S8G16     30.01F
MONROE         PTSUNNY   81  71  70 SW13G21   30.06F
6HR MIN TEMP:  67; 6HR MAX TEMP:  84;

MT. CLEMENS    CLOUDY    82  67  61 S20G25    30.03F
6HR MIN TEMP:  69; 6HR MAX TEMP:  82;

PONTIAC        CLOUDY    79  67  66 S15G24    30.04F
6HR MIN TEMP:  66; 6HR MAX TEMP:  81;

PORT HURON     MOSUNNY   81  64  57 S17       30.05F
TRI CITIES     LGT RAIN  76  72  87 S8        29.99F
6HR MIN TEMP:  65; 6HR MAX TEMP:  80; 6HR PCP:  0.01;

MIDLAND        CLOUDY    75  71  89 S7        29.97F
6HR MIN TEMP:  65; 6HR MAX TEMP:  80; 6HR PCP:  0.04;

TROY           CLOUDY    82  64  54 S10G21    30.07S
SAGINAW HB     CLOUDY    79  70  73 S16       29.99S
$$
MIZ043>046-050>051-056>058-064>065-071>073-077>080-241900-
SOUTHWEST LOWER MICHIGAN

CITY           SKY/WX    TMP DP  RH WIND       PRES   REMARKS
BATTLE CREEK   CLOUDY    75  72  90 S16       30.01F
6HR MIN TEMP:  65; 6HR MAX TEMP:  75; 6HR PCP:  0.05;

BENTON HARBOR  LGT RAIN  76  71  85 S17G26    29.93F
6HR MIN TEMP:  71; 6HR MAX TEMP:  78; 6HR PCP: TRACE;

BIG RAPIDS     PTSUNNY   81  70  71 SW8G21    29.94F
6HR MIN TEMP:  66; 6HR MAX TEMP:  81;

COLDWATER      CLOUDY    79  71  78 S7G16     30.02F
6HR MIN TEMP:  65; 6HR MAX TEMP:  79;

FREMONT        CLOUDY    79  68  70 SW17G25   29.95S
HOLLAND        CLOUDY    78  71  79 SW9       29.98F
6HR MIN TEMP:  72; 6HR MAX TEMP:  78; 6HR PCP:  0.08;

GRAND RAPIDS   CLOUDY    77  69  76 S13       29.99S
6HR MIN TEMP:  67; 6HR MAX TEMP:  78; 6HR PCP: TRACE;

IONIA          CLOUDY    76  67  73 S10       29.99R
6HR MIN TEMP:  64; 6HR MAX TEMP:  77; 6HR PCP:  0.03;

KALAMAZOO      CLOUDY    79  70  74 S16G22    29.99F
6HR MIN TEMP:  68; 6HR MAX TEMP:  79; 6HR PCP:  0.01;

LUDINGTON      CLOUDY    76  72  88 SW17G25   29.92S
6HR MIN TEMP:  70; 6HR MAX TEMP:  76; 6HR PCP:  0.31;

MARSHALL       CLOUDY    77  72  83 S7        30.01F
MOUNT PLEASANT PTSUNNY   77  70  79 SW10G20   29.97S
6HR MIN TEMP:  65; 6HR MAX TEMP:  78; 6HR PCP:  0.03;

MUSKEGON       CLOUDY    80  72  76 SW21G28   29.96S
6HR MIN TEMP:  69; 6HR MAX TEMP:  80; 6HR PCP: TRACE;

SOUTH HAVEN    MIX PCPN  78  73  84 S6        29.95F
$$
MIZ016>042-241900-
NORTHERN LOWER MICHIGAN

CITY           SKY/WX    TMP DP  RH WIND       PRES   REMARKS
ALPENA         CLOUDY    74  68  81 S14       29.92F
6HR MIN TEMP:  65; 6HR MAX TEMP:  79; 6HR PCP:  0.13;

BEAVER ISLAND  CLOUDY    72  70  92 SW14G23   29.85S
6HR MIN TEMP:  65; 6HR MAX TEMP:  72;

BELLAIRE       CLOUDY    73  69  90 S6        29.89S
6HR MIN TEMP:  66; 6HR MAX TEMP:  73;

CADILLAC       CLOUDY    75  67  76 SW20G26   29.95R
CHARLEVOIX     CLOUDY    74  70  87 SW13      29.90R
6HR MIN TEMP:  64; 6HR MAX TEMP:  74;

FRANKFORT      CLOUDY    73  69  86 SW13G20   29.91R
GAYLORD        CLOUDY    72  66  81 S10       29.92S
6HR MIN TEMP:  62; 6HR MAX TEMP:  72; 6HR PCP:  0.18;

GRAYLING       CLOUDY    73  68  84 S9G16     29.94S
HARBOR SPRINGS CLOUDY    72  69  91 SW8       29.88R
HOUGHTON LAKE  CLOUDY    74  68  81 S15       29.95S
6HR MIN TEMP:  64; 6HR MAX TEMP:  74; 6HR PCP:  0.02;

MANISTEE       LGT RAIN  73  70  90 S10G16    29.91R
OSCODA         CLOUDY    75  65  71 S13G28    29.95F
6HR MIN TEMP:  67; 6HR MAX TEMP:  80; 6HR PCP:  0.02;

PELLSTON       CLOUDY    73  68  84 S10G23    29.87S
6HR MIN TEMP:  63; 6HR MAX TEMP:  73; 6HR PCP:  0.87;

ROGERS CITY    CLOUDY    71  67  86 S9        29.91R
TRAVERSE CITY  CLOUDY    76  70  82 VRB6      29.88R
6HR MIN TEMP:  68; 6HR MAX TEMP:  76; 6HR PCP:  0.14;

$$
MIZ007>008-015-241900-
EASTERN UPPER MICHIGAN

CITY           SKY/WX    TMP DP  RH WIND       PRES   REMARKS
KINROSS        LGT RAIN  65  64  97 SE15      29.86F
6HR MIN TEMP:  63; 6HR MAX TEMP:  65; 6HR PCP:  1.14;

MACKINAC ISLAN CLOUDY    66  66 100 SE7       29.86F
6HR MIN TEMP:  64; 6HR MAX TEMP:  66; 6HR PCP:  1.44;

NEWBERRY       CLOUDY    67  66  97 S7        29.83F FOG
6HR MIN TEMP:  65; 6HR MAX TEMP:  67; 6HR PCP:  0.23;

S. S. MARIE    LGT RAIN  66  64  93 SE7       29.86F FOG
6HR MIN TEMP:  63; 6HR MAX TEMP:  67; 6HR PCP:  0.77;

$$
MIZ004>006-011>014-085-241900-
CENTRAL UPPER MICHIGAN

CITY           SKY/WX    TMP DP  RH WIND       PRES   REMARKS
MANISTIQUE     CLOUDY    67  64  92 S7        29.83S FOG
6HR MIN TEMP:  66; 6HR MAX TEMP:  68; 6HR PCP:  0.31;

ESCANABA       CLOUDY    74  69  85 SW9       29.81F
6HR MIN TEMP:  68; 6HR MAX TEMP:  75; 6HR PCP:  0.05;

MENOMINEE      CLOUDY   N/A N/A N/A W7        29.85F
SAWYER-GWINN   DRIZZLE   68  66  94 SW7       29.83S
$$
MIZ001>003-009>011-084-241900-
WESTERN UPPER MICHIGAN

CITY           SKY/WX    TMP DP  RH WIND       PRES   REMARKS
IRON MOUNTAIN  CLOUDY    71  66  84 W8G17     29.82F
6HR MIN TEMP:  66; 6HR MAX TEMP:  72; 6HR PCP: TRACE;

HOUGHTON       CLOUDY    73  64  73 NW5       29.79F
6HR MIN TEMP:  64; 6HR MAX TEMP:  74;

COPPER HARBOR    N/A     74  66  76 VRB5      29.78S
6HR MIN TEMP:  68; 6HR MAX TEMP:  75;

IRONWOOD       CLOUDY    74  66  76 W12       29.83S
6HR MIN TEMP:  66; 6HR MAX TEMP:  74; 6HR PCP:  0.01;

$$

ABBREVIATIONS USED IN REMARKS
   TC - TEMPERATURE IN CELSIUS
  WCI - WIND CHILL INDEX
   HX - HEAT INDEX
  VSB - VISIBILITY





USA.gov is the U.S. government's official web portal to all federal, state and local government web resources and services.